sat.trackr.live / text

‹ back to catalog

KUIPER-00184

NORAD 67139 · 2025-301G

PAYLOAD ACTIVE UNKNOWN

§ Identity

Operator
Country
US
Launch date
2025-12-16
Launch site
AFETR
Launch vehicle
Mass (kg)
RCS (m²)

External: N2YO · Heavens-Above · Gunter

§ Orbital elements

Epoch: 2026-09-20T08:28:12.376128Z

Period
97.30 min
Inclination
51.8996°
Eccentricity
0.0000473
Mean motion
14.79939074 rev/d
Perigee alt
629.2 km
Apogee alt
629.8 km
Semi-major
7,007.7 km
B*
2.5464e-4
RAAN
279.7869°
Arg perigee
67.0279°
Mean anomaly
293.0734°
Rev number
4,290

§ Raw data

KUIPER-001841 67139U 25301G   26263.35292102  .00001721  00000+0  25464-3 0  99942 67139  51.8996 279.7869 0000473  67.0279 293.0734 14.79939074 42905

JSON: /api/v1/satellites/67139 · /tle

For live sub-satellite position, see the globe view (requires WebGL).

§ Visibility from observer

Set your observer location to see the next 7 days of passes ≥ 10°. The values pass through the URL so the page stays shareable.

No JS? Fill the form by hand. The geolocation button needs JavaScript.